Time,TemperatureF,DewpointF,PressureIn,WindDirection,WindDirectionDegrees,WindSpeedMPH,WindSpeedGustMPH,Humidity,HourlyPrecipIn,Conditions,Clouds,dailyrainin,SoftwareType,DateUTC
2013-04-06 00:03:00,52.2,23.9,29.96,WSW,255,0.0,0.0,33,0.00,,,0.00,Wunderground v.1.15,2013-04-06 07:03:00,
2013-04-06 00:09:00,51.7,24.2,29.96,West,265,0.0,0.0,34,0.00,,,0.00,Wunderground v.1.15,2013-04-06 07:09:00,
2013-04-06 00:14:00,51.4,24.6,29.96,WSW,253,0.0,0.0,35,0.00,,,0.00,Wunderground v.1.15,2013-04-06 07:14:00,
2013-04-06 00:20:00,51.4,24.6,29.96,WSW,247,0.0,0.0,35,0.00,,,0.00,Wunderground v.1.15,2013-04-06 07:20:00,
2013-04-06 00:26:00,51.2,24.5,29.96,SW,231,0.0,0.0,35,0.00,,,0.00,Wunderground v.1.15,2013-04-06 07:26:00,
2013-04-06 00:32:00,51.1,23.7,29.96,WSW,238,0.0,0.0,34,0.00,,,0.00,Wunderground v.1.15,2013-04-06 07:32:00,
2013-04-06 00:37:00,51.4,23.2,29.96,SW,225,0.0,0.0,33,0.00,,,0.00,Wunderground v.1.15,2013-04-06 07:37:00,
2013-04-06 00:42:00,51.4,23.9,29.96,WSW,238,0.0,0.0,34,0.00,,,0.00,Wunderground v.1.15,2013-04-06 07:42:00,
2013-04-06 00:48:00,51.6,23.4,29.96,SW,226,0.0,0.0,33,0.00,,,0.00,Wunderground v.1.15,2013-04-06 07:48:00,
2013-04-06 00:54:00,51.5,23.3,29.95,SW,227,0.0,0.0,33,0.00,,,0.00,Wunderground v.1.15,2013-04-06 07:54:00,
2013-04-06 01:00:00,51.3,22.4,29.95,SW,220,0.0,0.0,32,0.00,,,0.00,Wunderground v.1.15,2013-04-06 08:00:00,
2013-04-06 01:06:00,51.3,22.4,29.95,SW,220,0.0,0.0,32,0.00,,,0.00,Wunderground v.1.15,2013-04-06 08:06:00,
2013-04-06 01:11:00,51.3,22.4,29.95,SW,226,0.0,0.0,32,0.00,,,0.00,Wunderground v.1.15,2013-04-06 08:11:00,
2013-04-06 01:17:00,51.2,22.3,29.96,West,264,0.0,0.0,32,0.00,,,0.00,Wunderground v.1.15,2013-04-06 08:17:00,
2013-04-06 01:22:00,50.8,22.0,29.96,West,267,0.0,0.0,32,0.00,,,0.00,Wunderground v.1.15,2013-04-06 08:22:00,
2013-04-06 01:27:00,50.5,22.4,29.97,WNW,294,0.0,0.0,33,0.00,,,0.00,Wunderground v.1.15,2013-04-06 08:27:00,
2013-04-06 01:33:00,50.2,22.9,29.97,West,279,0.0,0.0,34,0.00,,,0.00,Wunderground v.1.15,2013-04-06 08:33:00,
2013-04-06 01:39:00,50.3,23.0,29.97,West,262,0.0,0.0,34,0.00,,,0.00,Wunderground v.1.15,2013-04-06 08:39:00,
2013-04-06 01:45:00,49.9,22.6,29.97,WSW,245,0.0,0.0,34,0.00,,,0.00,Wunderground v.1.15,2013-04-06 08:45:00,
2013-04-06 01:50:00,49.8,22.5,29.97,WSW,240,0.0,0.0,34,0.00,,,0.00,Wunderground v.1.15,2013-04-06 08:50:00,
2013-04-06 01:57:00,49.5,22.3,29.97,West,261,0.0,0.0,34,0.00,,,0.00,Wunderground v.1.15,2013-04-06 08:57:00,
2013-04-06 02:02:00,49.4,22.2,29.97,WNW,286,0.0,0.0,34,0.00,,,0.00,Wunderground v.1.15,2013-04-06 09:02:00,
2013-04-06 02:07:00,49.6,21.6,29.96,WNW,298,0.0,0.0,33,0.00,,,0.00,Wunderground v.1.15,2013-04-06 09:07:00,
2013-04-06 02:13:00,49.5,20.8,29.95,WNW,295,0.0,0.0,32,0.00,,,0.00,Wunderground v.1.15,2013-04-06 09:13:00,
2013-04-06 02:19:00,49.5,20.8,29.95,West,264,0.0,0.0,32,0.00,,,0.00,Wunderground v.1.15,2013-04-06 09:19:00,
2013-04-06 02:24:00,49.4,20.7,29.95,WSW,250,0.0,0.0,32,0.00,,,0.00,Wunderground v.1.15,2013-04-06 09:24:00,
2013-04-06 02:30:00,49.3,20.6,29.96,WSW,257,0.0,0.0,32,0.00,,,0.00,Wunderground v.1.15,2013-04-06 09:30:00,
2013-04-06 02:36:00,48.9,21.0,29.96,WSW,257,0.0,0.0,33,0.00,,,0.00,Wunderground v.1.15,2013-04-06 09:36:00,
2013-04-06 02:42:00,48.8,20.9,29.96,WSW,255,0.0,0.0,33,0.00,,,0.00,Wunderground v.1.15,2013-04-06 09:42:00,
2013-04-06 02:47:00,48.6,20.8,29.96,West,262,0.0,0.0,33,0.00,,,0.00,Wunderground v.1.15,2013-04-06 09:47:00,
2013-04-06 02:53:00,48.6,20.8,29.96,West,268,0.0,0.0,33,0.00,,,0.00,Wunderground v.1.15,2013-04-06 09:53:00,
2013-04-06 03:00:00,48.5,21.4,29.97,SW,216,0.0,0.0,34,0.00,,,0.00,Wunderground v.1.15,2013-04-06 10:00:00,
2013-04-06 03:07:00,48.5,21.4,29.97,WNW,288,0.0,0.0,34,0.00,,,0.00,Wunderground v.1.15,2013-04-06 10:07:00,
2013-04-06 03:12:00,48.4,21.3,29.96,West,277,0.0,0.0,34,0.00,,,0.00,Wunderground v.1.15,2013-04-06 10:12:00,
2013-04-06 03:18:00,48.4,22.0,29.96,West,268,0.0,0.0,35,0.00,,,0.00,Wunderground v.1.15,2013-04-06 10:18:00,
2013-04-06 03:23:00,48.4,22.0,29.97,West,261,0.0,0.0,35,0.00,,,0.00,Wunderground v.1.15,2013-04-06 10:23:00,
2013-04-06 03:29:00,48.2,21.8,29.97,WSW,252,0.0,0.0,35,0.00,,,0.00,Wunderground v.1.15,2013-04-06 10:29:00,
2013-04-06 03:35:00,48.0,22.3,29.97,West,264,0.0,0.0,36,0.00,,,0.00,Wunderground v.1.15,2013-04-06 10:35:00,
2013-04-06 03:40:00,47.6,21.9,29.97,West,268,0.0,0.0,36,0.00,,,0.00,Wunderground v.1.15,2013-04-06 10:40:00,
2013-04-06 03:45:00,47.4,22.4,29.97,West,274,0.0,0.0,37,0.00,,,0.00,Wunderground v.1.15,2013-04-06 10:45:00,
2013-04-06 03:51:00,47.3,22.9,29.97,SW,231,0.0,0.0,38,0.00,,,0.00,Wunderground v.1.15,2013-04-06 10:51:00,
2013-04-06 03:56:00,47.3,22.9,29.97,NW,308,0.0,0.0,38,0.00,,,0.00,Wunderground v.1.15,2013-04-06 10:56:00,
2013-04-06 04:01:00,47.4,23.0,29.97,WNW,285,0.0,0.0,38,0.00,,,0.00,Wunderground v.1.15,2013-04-06 11:01:00,
2013-04-06 04:06:00,47.5,22.5,29.96,West,261,0.0,0.0,37,0.00,,,0.00,Wunderground v.1.15,2013-04-06 11:06:00,
2013-04-06 04:12:00,47.7,22.7,29.96,West,269,0.0,0.0,37,0.00,,,0.00,Wunderground v.1.15,2013-04-06 11:12:00,
2013-04-06 04:18:00,47.6,22.6,29.96,WSW,258,0.0,0.0,37,0.00,,,0.00,Wunderground v.1.15,2013-04-06 11:18:00,
2013-04-06 04:23:00,47.5,22.5,29.96,West,259,0.0,0.0,37,0.00,,,0.00,Wunderground v.1.15,2013-04-06 11:23:00,
2013-04-06 04:28:00,47.4,22.4,29.95,West,266,0.0,0.0,37,0.00,,,0.00,Wunderground v.1.15,2013-04-06 11:28:00,
2013-04-06 04:34:00,47.5,22.5,29.96,West,264,0.0,0.0,37,0.00,,,0.00,Wunderground v.1.15,2013-04-06 11:34:00,
2013-04-06 04:40:00,47.6,22.6,29.95,West,266,0.0,0.0,37,0.00,,,0.00,Wunderground v.1.15,2013-04-06 11:40:00,
2013-04-06 04:45:00,47.8,22.8,29.95,WSW,257,0.0,0.0,37,0.00,,,0.00,Wunderground v.1.15,2013-04-06 11:45:00,
2013-04-06 04:50:00,47.7,22.7,29.95,West,264,0.0,0.0,37,0.00,,,0.00,Wunderground v.1.15,2013-04-06 11:50:00,
2013-04-06 04:56:00,47.7,22.7,29.95,WSW,251,0.0,0.0,37,0.00,,,0.00,Wunderground v.1.15,2013-04-06 11:56:00,
2013-04-06 05:02:00,47.9,22.8,29.96,West,275,0.0,0.0,37,0.00,,,0.00,Wunderground v.1.15,2013-04-06 12:02:00,
2013-04-06 05:07:00,47.9,22.8,29.96,WSW,250,0.0,0.0,37,0.00,,,0.00,Wunderground v.1.15,2013-04-06 12:07:00,
2013-04-06 05:12:00,47.9,22.8,29.96,WSW,252,0.0,0.0,37,0.00,,,0.00,Wunderground v.1.15,2013-04-06 12:12:00,
2013-04-06 05:18:00,48.2,23.1,29.96,WSW,258,0.0,0.0,37,0.00,,,0.00,Wunderground v.1.15,2013-04-06 12:18:00,
2013-04-06 05:23:00,48.2,22.5,29.95,WSW,243,0.0,0.0,36,0.00,,,0.00,Wunderground v.1.15,2013-04-06 12:23:00,
2013-04-06 05:28:00,48.1,22.4,29.95,WSW,257,0.0,0.0,36,0.00,,,0.00,Wunderground v.1.15,2013-04-06 12:28:00,
2013-04-06 05:34:00,48.1,22.4,29.95,West,269,0.0,0.0,36,0.00,,,0.00,Wunderground v.1.15,2013-04-06 12:34:00,
2013-04-06 05:40:00,48.2,22.5,29.96,WSW,258,0.0,0.0,36,0.00,,,0.00,Wunderground v.1.15,2013-04-06 12:40:00,
2013-04-06 05:46:00,48.4,22.6,29.96,WSW,256,0.0,0.0,36,0.00,,,0.00,Wunderground v.1.15,2013-04-06 12:46:00,
2013-04-06 05:51:00,48.5,22.7,29.96,West,270,0.0,0.0,36,0.00,,,0.00,Wunderground v.1.15,2013-04-06 12:51:00,
2013-04-06 05:56:00,48.4,22.6,29.96,WNW,284,0.0,0.0,36,0.00,,,0.00,Wunderground v.1.15,2013-04-06 12:56:00,
2013-04-06 06:04:00,47.9,22.2,29.97,West,268,0.0,0.0,36,0.00,,,0.00,Wunderground v.1.15,2013-04-06 13:04:00,
2013-04-06 06:10:00,-999.9,-99.9,29.97,North,32767,-999.0,0.0,255,-99.99,,,0.00,Wunderground v.1.15,2013-04-06 13:10:00,
2013-04-06 06:15:00,-999.9,-99.9,29.97,North,32767,-999.0,0.0,255,-99.99,,,0.00,Wunderground v.1.15,2013-04-06 13:15:00,
2013-04-06 06:21:00,-999.9,-99.9,29.97,North,32767,-999.0,0.0,255,-99.99,,,0.00,Wunderground v.1.15,2013-04-06 13:21:00,
2013-04-06 06:27:00,-999.9,-99.9,29.97,North,32767,-999.0,0.0,255,-99.99,,,0.00,Wunderground v.1.15,2013-04-06 13:27:00,
2013-04-06 06:33:00,-999.9,-99.9,29.96,North,32767,-999.0,0.0,255,-99.99,,,0.00,Wunderground v.1.15,2013-04-06 13:33:00,
2013-04-06 06:38:00,-999.9,-99.9,29.96,North,32767,-999.0,0.0,255,-99.99,,,0.00,Wunderground v.1.15,2013-04-06 13:38:00,
2013-04-06 06:43:00,-999.9,-99.9,29.96,North,32767,-999.0,0.0,255,-99.99,,,0.00,Wunderground v.1.15,2013-04-06 13:43:00,
2013-04-06 06:49:00,-999.9,-99.9,29.96,North,32767,-999.0,0.0,255,-99.99,,,0.00,Wunderground v.1.15,2013-04-06 13:49:00,
2013-04-06 06:55:00,-999.9,-99.9,29.96,North,32767,-999.0,0.0,255,-99.99,,,0.00,Wunderground v.1.15,2013-04-06 13:55:00,
2013-04-06 07:01:00,-999.9,-99.9,29.97,North,32767,-999.0,0.0,255,-99.99,,,0.00,Wunderground v.1.15,2013-04-06 14:01:00,
2013-04-06 07:07:00,-999.9,-99.9,29.97,North,32767,-999.0,0.0,255,-99.99,,,0.00,Wunderground v.1.15,2013-04-06 14:07:00,
2013-04-06 07:13:00,-999.9,-99.9,29.97,North,32767,-999.0,0.0,255,-99.99,,,0.00,Wunderground v.1.15,2013-04-06 14:13:00,
2013-04-06 07:18:00,-999.9,-99.9,29.96,North,32767,-999.0,0.0,255,-99.99,,,0.00,Wunderground v.1.15,2013-04-06 14:18:00,
2013-04-06 07:23:00,49.0,23.2,29.96,WSW,258,0.0,0.0,36,0.00,,,0.00,Wunderground v.1.15,2013-04-06 14:23:00,
2013-04-06 07:28:00,49.1,23.3,29.96,West,269,0.0,0.0,36,0.00,,,0.00,Wunderground v.1.15,2013-04-06 14:28:00,
2013-04-06 07:34:00,49.3,23.4,29.97,WSW,257,0.0,0.0,36,0.00,,,0.00,Wunderground v.1.15,2013-04-06 14:34:00,
2013-04-06 07:40:00,49.5,22.9,29.97,WSW,248,0.0,0.0,35,0.00,,,0.00,Wunderground v.1.15,2013-04-06 14:40:00,
2013-04-06 07:46:00,49.6,23.0,29.98,West,281,0.0,0.0,35,0.00,,,0.00,Wunderground v.1.15,2013-04-06 14:46:00,
2013-04-06 07:51:00,49.6,23.0,29.98,WNW,294,0.0,0.0,35,0.00,,,0.00,Wunderground v.1.15,2013-04-06 14:51:00,
2013-04-06 07:57:00,49.6,23.7,29.98,NW,308,0.0,0.0,36,0.00,,,0.00,Wunderground v.1.15,2013-04-06 14:57:00,
2013-04-06 08:03:00,49.7,23.8,29.98,NW,319,0.0,0.0,36,0.00,,,0.00,Wunderground v.1.15,2013-04-06 15:03:00,
2013-04-06 08:09:00,49.9,24.0,29.98,NW,310,0.0,0.0,36,0.00,,,0.00,Wunderground v.1.15,2013-04-06 15:09:00,
2013-04-06 08:14:00,50.3,24.3,29.98,NNW,333,0.0,0.0,36,0.00,,,0.00,Wunderground v.1.15,2013-04-06 15:14:00,
2013-04-06 08:20:00,50.6,23.9,29.99,NW,312,0.0,0.0,35,0.00,,,0.00,Wunderground v.1.15,2013-04-06 15:20:00,
2013-04-06 08:25:00,50.8,24.1,29.99,WNW,293,0.0,0.0,35,0.00,,,0.00,Wunderground v.1.15,2013-04-06 15:25:00,
2013-04-06 08:31:00,51.0,24.3,29.99,SW,233,0.0,0.0,35,0.00,,,0.00,Wunderground v.1.15,2013-04-06 15:31:00,
2013-04-06 08:37:00,51.1,24.4,29.99,WSW,252,0.0,0.0,35,0.00,,,0.00,Wunderground v.1.15,2013-04-06 15:37:00,
2013-04-06 08:42:00,51.3,23.8,30.00,West,259,0.0,0.0,34,0.00,,,0.00,Wunderground v.1.15,2013-04-06 15:42:00,
2013-04-06 08:48:00,51.5,24.0,29.99,NW,307,0.0,0.0,34,0.00,,,0.00,Wunderground v.1.15,2013-04-06 15:48:00,
2013-04-06 08:54:00,51.7,24.2,30.00,NW,309,0.0,0.0,34,0.00,,,0.00,Wunderground v.1.15,2013-04-06 15:54:00,
2013-04-06 09:00:00,52.1,24.6,30.00,WNW,296,0.0,0.0,34,0.00,,,0.00,Wunderground v.1.15,2013-04-06 16:00:00,
2013-04-06 09:06:00,52.6,24.3,29.99,WSW,251,0.0,0.0,33,0.00,,,0.00,Wunderground v.1.15,2013-04-06 16:06:00,
2013-04-06 09:11:00,53.1,24.7,29.99,West,273,0.0,0.0,33,0.00,,,0.00,Wunderground v.1.15,2013-04-06 16:11:00,
2013-04-06 09:17:00,53.4,25.0,29.99,West,264,0.0,0.0,33,0.00,,,0.00,Wunderground v.1.15,2013-04-06 16:17:00,
2013-04-06 09:22:00,53.7,26.0,29.99,SW,233,0.0,0.0,34,0.00,,,0.00,Wunderground v.1.15,2013-04-06 16:22:00,
2013-04-06 09:28:00,53.8,26.1,29.99,SW,230,0.0,0.0,34,0.00,,,0.00,Wunderground v.1.15,2013-04-06 16:28:00,
2013-04-06 09:33:00,54.1,26.3,29.99,WSW,252,0.0,0.0,34,0.00,,,0.00,Wunderground v.1.15,2013-04-06 16:33:00,
2013-04-06 09:40:00,54.9,27.0,29.99,West,269,0.0,0.0,34,0.00,,,0.00,Wunderground v.1.15,2013-04-06 16:40:00,
2013-04-06 09:46:00,54.7,26.8,29.99,WSW,254,0.0,0.0,34,0.00,,,0.00,Wunderground v.1.15,2013-04-06 16:46:00,
2013-04-06 09:51:00,54.7,27.6,29.99,WSW,248,0.0,0.0,35,0.00,,,0.00,Wunderground v.1.15,2013-04-06 16:51:00,
2013-04-06 09:56:00,55.1,27.2,29.99,SW,227,0.0,0.0,34,0.00,,,0.00,Wunderground v.1.15,2013-04-06 16:56:00,
2013-04-06 10:03:00,56.4,28.3,29.99,WSW,248,0.0,0.0,34,0.00,,,0.00,Wunderground v.1.15,2013-04-06 17:03:00,
2013-04-06 10:09:00,56.2,28.2,29.99,WNW,301,0.0,0.0,34,0.00,,,0.00,Wunderground v.1.15,2013-04-06 17:09:00,
2013-04-06 10:15:00,56.3,28.3,29.99,WSW,237,0.0,0.0,34,0.00,,,0.00,Wunderground v.1.15,2013-04-06 17:15:00,
2013-04-06 10:22:00,55.8,27.8,29.98,WSW,241,0.0,0.0,34,0.00,,,0.00,Wunderground v.1.15,2013-04-06 17:22:00,
2013-04-06 10:28:00,56.4,28.3,29.98,WSW,250,0.0,0.0,34,0.00,,,0.00,Wunderground v.1.15,2013-04-06 17:28:00,
2013-04-06 10:34:00,57.3,29.1,29.98,SSW,204,0.0,0.0,34,0.00,,,0.00,Wunderground v.1.15,2013-04-06 17:34:00,
2013-04-06 10:40:00,57.5,28.6,29.98,WSW,239,2.0,2.0,33,0.00,,,0.00,Wunderground v.1.15,2013-04-06 17:40:00,
2013-04-06 10:47:00,57.8,28.9,29.98,SW,224,0.0,2.0,33,0.00,,,0.00,Wunderground v.1.15,2013-04-06 17:47:00,
2013-04-06 10:53:00,57.8,28.9,29.98,WSW,248,0.0,0.0,33,0.00,,,0.00,Wunderground v.1.15,2013-04-06 17:53:00,
2013-04-06 10:58:00,57.6,28.7,29.98,WSW,252,0.0,0.0,33,0.00,,,0.00,Wunderground v.1.15,2013-04-06 17:58:00,
2013-04-06 11:03:00,58.1,28.4,29.98,WNW,291,0.0,0.0,32,0.00,,,0.00,Wunderground v.1.15,2013-04-06 18:03:00,
2013-04-06 11:08:00,58.3,28.5,29.98,SW,222,0.0,0.0,32,0.00,,,0.00,Wunderground v.1.15,2013-04-06 18:08:00,
2013-04-06 11:14:00,58.2,29.2,29.98,SSW,211,0.0,0.0,33,0.00,,,0.00,Wunderground v.1.15,2013-04-06 18:14:00,
2013-04-06 11:20:00,58.0,29.0,29.98,SW,214,0.0,0.0,33,0.00,,,0.00,Wunderground v.1.15,2013-04-06 18:20:00,
2013-04-06 11:25:00,58.2,28.5,29.98,SE,126,0.0,0.0,32,0.00,,,0.00,Wunderground v.1.15,2013-04-06 18:25:00,
2013-04-06 11:30:00,58.3,29.3,29.98,SW,233,0.0,0.0,33,0.00,,,0.00,Wunderground v.1.15,2013-04-06 18:30:00,
2013-04-06 11:36:00,58.5,29.5,29.97,SW,223,0.0,0.0,33,0.00,,,0.00,Wunderground v.1.15,2013-04-06 18:36:00,
2013-04-06 11:42:00,58.7,28.9,29.97,WSW,245,0.0,0.0,32,0.00,,,0.00,Wunderground v.1.15,2013-04-06 18:42:00,
2013-04-06 11:48:00,58.8,29.0,29.97,ESE,122,0.0,0.0,32,0.00,,,0.00,Wunderground v.1.15,2013-04-06 18:48:00,
2013-04-06 11:53:00,59.1,29.2,29.97,WSW,243,0.0,0.0,32,0.00,,,0.00,Wunderground v.1.15,2013-04-06 18:53:00,
2013-04-06 11:58:00,59.2,29.3,29.96,East,101,0.0,0.0,32,0.00,,,0.00,Wunderground v.1.15,2013-04-06 18:58:00,
2013-04-06 12:04:00,60.4,29.6,29.96,West,269,0.0,0.0,31,0.00,,,0.00,Wunderground v.1.15,2013-04-06 19:04:00,
2013-04-06 12:09:00,61.4,28.8,29.95,WSW,242,0.0,0.0,29,0.00,,,0.00,Wunderground v.1.15,2013-04-06 19:09:00,
2013-04-06 12:15:00,61.2,28.7,29.95,WSW,237,0.0,0.0,29,0.00,,,0.00,Wunderground v.1.15,2013-04-06 19:15:00,
2013-04-06 12:20:00,61.0,28.5,29.95,West,263,0.0,0.0,29,0.00,,,0.00,Wunderground v.1.15,2013-04-06 19:20:00,
2013-04-06 12:26:00,61.4,28.8,29.95,West,274,0.0,0.0,29,0.00,,,0.00,Wunderground v.1.15,2013-04-06 19:26:00,
2013-04-06 12:31:00,61.6,29.0,29.95,WSW,255,0.0,0.0,29,0.00,,,0.00,Wunderground v.1.15,2013-04-06 19:31:00,
2013-04-06 12:36:00,60.9,29.2,29.95,WNW,293,0.0,0.0,30,0.00,,,0.00,Wunderground v.1.15,2013-04-06 19:36:00,
2013-04-06 12:41:00,61.6,29.0,29.95,SW,222,0.0,0.0,29,0.00,,,0.00,Wunderground v.1.15,2013-04-06 19:41:00,
2013-04-06 12:46:00,62.4,29.7,29.95,SSW,195,0.0,0.0,29,0.00,,,0.00,Wunderground v.1.15,2013-04-06 19:46:00,
2013-04-06 12:51:00,63.8,30.0,29.94,SSW,193,0.0,0.0,28,0.00,,,0.00,Wunderground v.1.15,2013-04-06 19:51:00,
2013-04-06 12:57:00,63.4,29.7,29.93,WSW,249,0.0,0.0,28,0.00,,,0.00,Wunderground v.1.15,2013-04-06 19:57:00,
2013-04-06 13:03:00,63.1,29.4,29.93,WSW,250,0.0,0.0,28,0.00,,,0.00,Wunderground v.1.15,2013-04-06 20:03:00,
2013-04-06 13:08:00,62.7,29.1,29.93,SW,222,0.0,0.0,28,0.00,,,0.00,Wunderground v.1.15,2013-04-06 20:08:00,
2013-04-06 13:14:00,62.8,30.0,29.93,WSW,245,0.0,0.0,29,0.00,,,0.00,Wunderground v.1.15,2013-04-06 20:14:00,
2013-04-06 13:20:00,63.3,29.6,29.93,South,174,0.0,0.0,28,0.00,,,0.00,Wunderground v.1.15,2013-04-06 20:20:00,
2013-04-06 13:27:00,62.7,30.0,29.92,West,264,0.0,0.0,29,0.00,,,0.00,Wunderground v.1.15,2013-04-06 20:27:00,
2013-04-06 13:32:00,63.1,29.4,29.92,SSE,155,0.0,0.0,28,0.00,,,0.00,Wunderground v.1.15,2013-04-06 20:32:00,
2013-04-06 13:38:00,62.9,30.1,29.92,SSW,193,0.0,0.0,29,0.00,,,0.00,Wunderground v.1.15,2013-04-06 20:38:00,
2013-04-06 13:44:00,63.7,30.0,29.91,WNW,295,0.0,0.0,28,0.00,,,0.00,Wunderground v.1.15,2013-04-06 20:44:00,
2013-04-06 13:49:00,63.3,29.6,29.91,West,275,0.0,0.0,28,0.00,,,0.00,Wunderground v.1.15,2013-04-06 20:49:00,
2013-04-06 13:55:00,62.8,30.0,29.91,WSW,247,0.0,0.0,29,0.00,,,0.00,Wunderground v.1.15,2013-04-06 20:55:00,
2013-04-06 14:00:00,62.8,29.2,29.92,WSW,252,0.0,0.0,28,0.00,,,0.00,Wunderground v.1.15,2013-04-06 21:00:00,
2013-04-06 14:05:00,62.5,28.9,29.91,WNW,293,0.0,0.0,28,0.00,,,0.00,Wunderground v.1.15,2013-04-06 21:05:00,
2013-04-06 14:11:00,62.4,28.8,29.91,WSW,250,0.0,0.0,28,0.00,,,0.00,Wunderground v.1.15,2013-04-06 21:11:00,
2013-04-06 14:16:00,62.4,27.9,29.91,WNW,290,0.0,0.0,27,0.00,,,0.00,Wunderground v.1.15,2013-04-06 21:16:00,
2013-04-06 14:22:00,62.5,27.1,29.91,WSW,255,0.0,0.0,26,0.00,,,0.00,Wunderground v.1.15,2013-04-06 21:22:00,
2013-04-06 14:27:00,62.4,27.0,29.91,WSW,257,0.0,0.0,26,0.00,,,0.00,Wunderground v.1.15,2013-04-06 21:27:00,
2013-04-06 14:33:00,62.7,27.3,29.91,WSW,250,0.0,0.0,26,0.00,,,0.00,Wunderground v.1.15,2013-04-06 21:33:00,
2013-04-06 14:38:00,62.2,26.9,29.90,WSW,256,0.0,0.0,26,0.00,,,0.00,Wunderground v.1.15,2013-04-06 21:38:00,
2013-04-06 14:44:00,62.7,27.3,29.90,NNW,336,0.0,0.0,26,0.00,,,0.00,Wunderground v.1.15,2013-04-06 21:44:00,
2013-04-06 14:50:00,63.2,26.8,29.89,NNW,328,0.0,0.0,25,0.00,,,0.00,Wunderground v.1.15,2013-04-06 21:50:00,
2013-04-06 14:56:00,62.9,26.5,29.89,West,270,0.0,0.0,25,0.00,,,0.00,Wunderground v.1.15,2013-04-06 21:56:00,
2013-04-06 15:02:00,63.2,26.8,29.89,SW,230,0.0,0.0,25,0.00,,,0.00,Wunderground v.1.15,2013-04-06 22:02:00,
2013-04-06 15:08:00,64.4,25.8,29.89,West,266,0.0,0.0,23,0.00,,,0.00,Wunderground v.1.15,2013-04-06 22:08:00,
2013-04-06 15:13:00,63.6,26.1,29.89,WSW,241,0.0,0.0,24,0.00,,,0.00,Wunderground v.1.15,2013-04-06 22:13:00,
2013-04-06 15:20:00,63.7,26.2,29.88,SW,220,0.0,0.0,24,0.00,,,0.00,Wunderground v.1.15,2013-04-06 22:20:00,
2013-04-06 15:26:00,64.3,19.8,29.89,WSW,245,0.0,0.0,18,0.00,,,0.00,Wunderground v.1.15,2013-04-06 22:26:00,
2013-04-06 15:32:00,64.8,22.7,29.88,WSW,244,0.0,0.0,20,0.00,,,0.00,Wunderground v.1.15,2013-04-06 22:32:00,
2013-04-06 15:38:00,64.4,26.8,29.88,West,262,0.0,0.0,24,0.00,,,0.00,Wunderground v.1.15,2013-04-06 22:38:00,
2013-04-06 15:43:00,64.3,23.5,29.88,WSW,256,0.0,0.0,21,0.00,,,0.00,Wunderground v.1.15,2013-04-06 22:43:00,
2013-04-06 15:49:00,63.9,22.0,29.88,WNW,289,0.0,0.0,20,0.00,,,0.00,Wunderground v.1.15,2013-04-06 22:49:00,
2013-04-06 15:55:00,63.9,24.3,29.87,West,266,0.0,0.0,22,0.00,,,0.00,Wunderground v.1.15,2013-04-06 22:55:00,
2013-04-06 16:01:00,63.7,25.2,29.87,West,280,0.0,0.0,23,0.00,,,0.00,Wunderground v.1.15,2013-04-06 23:01:00,
2013-04-06 16:06:00,63.5,27.0,29.87,West,273,0.0,0.0,25,0.00,,,0.00,Wunderground v.1.15,2013-04-06 23:06:00,
2013-04-06 16:13:00,63.3,22.7,29.88,West,262,0.0,0.0,21,0.00,,,0.00,Wunderground v.1.15,2013-04-06 23:13:00,
2013-04-06 16:24:00,63.1,21.3,29.87,West,266,0.0,0.0,20,0.00,,,0.00,Wunderground v.1.15,2013-04-06 23:24:00,
2013-04-06 16:29:00,63.0,22.4,29.87,West,266,0.0,0.0,21,0.00,,,0.00,Wunderground v.1.15,2013-04-06 23:29:00,
2013-04-06 16:35:00,63.0,23.5,29.87,West,276,0.0,0.0,22,0.00,,,0.00,Wunderground v.1.15,2013-04-06 23:35:00,
2013-04-06 16:40:00,63.2,23.7,29.87,WSW,241,0.0,0.0,22,0.00,,,0.00,Wunderground v.1.15,2013-04-06 23:40:00,
2013-04-06 16:45:00,63.7,23.0,29.88,West,273,0.0,0.0,21,0.00,,,0.00,Wunderground v.1.15,2013-04-06 23:45:00,
2013-04-06 16:50:00,64.2,22.2,29.88,WSW,257,0.0,0.0,20,0.00,,,0.00,Wunderground v.1.15,2013-04-06 23:50:00,
2013-04-06 16:55:00,64.6,22.6,29.88,WNW,300,0.0,0.0,20,0.00,,,0.00,Wunderground v.1.15,2013-04-06 23:55:00,
2013-04-06 17:00:00,64.6,23.7,29.88,SW,227,0.0,0.0,21,0.00,,,0.00,Wunderground v.1.15,2013-04-07 00:00:00,
2013-04-06 17:06:00,63.9,23.2,29.88,West,265,0.0,0.0,21,0.00,,,0.00,Wunderground v.1.15,2013-04-07 00:06:00,
2013-04-06 17:11:00,63.3,22.7,29.88,West,265,0.0,0.0,21,0.00,,,0.00,Wunderground v.1.15,2013-04-07 00:11:00,
2013-04-06 17:16:00,62.8,22.2,29.88,West,264,0.0,0.0,21,0.00,,,0.00,Wunderground v.1.15,2013-04-07 00:16:00,
2013-04-06 17:22:00,62.6,20.9,29.88,WSW,254,0.0,0.0,20,0.00,,,0.00,Wunderground v.1.15,2013-04-07 00:22:00,
2013-04-06 17:28:00,62.2,22.8,29.88,NW,306,0.0,0.0,22,0.00,,,0.00,Wunderground v.1.15,2013-04-07 00:28:00,
2013-04-06 17:35:00,62.1,22.8,29.88,WSW,252,0.0,0.0,22,0.00,,,0.00,Wunderground v.1.15,2013-04-07 00:35:00,
2013-04-06 17:41:00,61.9,21.5,29.88,WNW,283,0.0,0.0,21,0.00,,,0.00,Wunderground v.1.15,2013-04-07 00:41:00,
2013-04-06 17:47:00,62.8,22.2,29.88,WNW,300,0.0,0.0,21,0.00,,,0.00,Wunderground v.1.15,2013-04-07 00:47:00,
2013-04-06 17:52:00,62.8,22.2,29.88,West,264,0.0,0.0,21,0.00,,,0.00,Wunderground v.1.15,2013-04-07 00:52:00,
2013-04-06 17:58:00,62.7,22.2,29.88,WSW,250,0.0,0.0,21,0.00,,,0.00,Wunderground v.1.15,2013-04-07 00:58:00,
2013-04-06 18:04:00,62.2,22.8,29.88,SW,233,0.0,0.0,22,0.00,,,0.00,Wunderground v.1.15,2013-04-07 01:04:00,
2013-04-06 18:09:00,61.7,23.5,29.88,WNW,292,0.0,0.0,23,0.00,,,0.00,Wunderground v.1.15,2013-04-07 01:09:00,
2013-04-06 18:14:00,61.3,23.1,29.88,SW,222,0.0,0.0,23,0.00,,,0.00,Wunderground v.1.15,2013-04-07 01:14:00,
2013-04-06 18:19:00,61.1,23.0,29.88,WSW,254,0.0,7.0,23,0.00,,,0.00,Wunderground v.1.15,2013-04-07 01:19:00,
2013-04-06 18:25:00,60.7,22.6,29.88,West,266,1.0,4.0,23,0.00,,,0.00,Wunderground v.1.15,2013-04-07 01:25:00,
2013-04-06 18:30:00,60.3,23.3,29.89,West,264,0.0,1.0,24,0.00,,,0.00,Wunderground v.1.15,2013-04-07 01:30:00,
2013-04-06 18:37:00,59.7,22.8,29.88,West,280,7.0,19.0,24,0.00,,,0.00,Wunderground v.1.15,2013-04-07 01:37:00,
2013-04-06 18:42:00,59.4,23.5,29.88,West,279,12.0,18.0,25,0.00,,,0.00,Wunderground v.1.15,2013-04-07 01:42:00,
2013-04-06 18:47:00,59.2,23.4,29.88,West,271,7.0,18.0,25,0.00,,,0.00,Wunderground v.1.15,2013-04-07 01:47:00,
2013-04-06 19:08:00,58.0,23.3,29.88,West,259,0.0,0.0,26,0.00,,,0.00,Wunderground v.1.15,2013-04-07 02:08:00,
2013-04-06 19:13:00,57.8,24.0,29.88,West,270,0.0,0.0,27,0.00,,,0.00,Wunderground v.1.15,2013-04-07 02:13:00,
2013-04-06 19:18:00,57.6,22.9,29.88,West,263,0.0,0.0,26,0.00,,,0.00,Wunderground v.1.15,2013-04-07 02:18:00,
2013-04-06 19:24:00,57.4,22.8,29.89,West,268,0.0,0.0,26,0.00,,,0.00,Wunderground v.1.15,2013-04-07 02:24:00,
2013-04-06 19:29:00,57.1,24.3,29.89,West,272,0.0,0.0,28,0.00,,,0.00,Wunderground v.1.15,2013-04-07 02:29:00,
2013-04-06 19:34:00,56.9,24.1,29.89,WNW,287,0.0,0.0,28,0.00,,,0.00,Wunderground v.1.15,2013-04-07 02:34:00,
2013-04-06 19:40:00,56.6,24.7,29.89,WSW,250,0.0,0.0,29,0.00,,,0.00,Wunderground v.1.15,2013-04-07 02:40:00,
2013-04-06 19:46:00,56.5,24.6,29.89,WSW,251,0.0,0.0,29,0.00,,,0.00,Wunderground v.1.15,2013-04-07 02:46:00,
2013-04-06 19:52:00,56.2,25.1,29.89,West,266,0.0,0.0,30,0.00,,,0.00,Wunderground v.1.15,2013-04-07 02:52:00,
2013-04-06 19:57:00,56.1,24.2,29.89,WSW,257,0.0,0.0,29,0.00,,,0.00,Wunderground v.1.15,2013-04-07 02:57:00,
2013-04-06 20:02:00,55.8,24.8,29.90,WNW,290,0.0,0.0,30,0.00,,,0.00,Wunderground v.1.15,2013-04-07 03:02:00,
2013-04-06 20:07:00,55.6,25.4,29.90,WSW,241,0.0,0.0,31,0.00,,,0.00,Wunderground v.1.15,2013-04-07 03:07:00,
2013-04-06 20:13:00,55.4,25.2,29.90,WSW,257,0.0,0.0,31,0.00,,,0.00,Wunderground v.1.15,2013-04-07 03:13:00,
2013-04-06 20:18:00,55.3,25.9,29.90,West,266,0.0,0.0,32,0.00,,,0.00,Wunderground v.1.15,2013-04-07 03:18:00,
2013-04-06 20:23:00,55.1,25.7,29.90,West,269,0.0,0.0,32,0.00,,,0.00,Wunderground v.1.15,2013-04-07 03:23:00,
2013-04-06 20:29:00,54.9,26.3,29.90,West,268,0.0,0.0,33,0.00,,,0.00,Wunderground v.1.15,2013-04-07 03:29:00,
2013-04-06 20:35:00,54.7,26.1,29.90,West,267,0.0,0.0,33,0.00,,,0.00,Wunderground v.1.15,2013-04-07 03:35:00,
2013-04-06 20:42:00,54.6,26.8,29.91,West,264,0.0,0.0,34,0.00,,,0.00,Wunderground v.1.15,2013-04-07 03:42:00,
2013-04-06 20:47:00,54.8,26.2,29.91,WSW,238,0.0,0.0,33,0.00,,,0.00,Wunderground v.1.15,2013-04-07 03:47:00,
2013-04-06 20:53:00,54.9,26.3,29.92,WNW,302,0.0,0.0,33,0.00,,,0.00,Wunderground v.1.15,2013-04-07 03:53:00,
2013-04-06 20:58:00,54.9,26.3,29.92,WSW,252,0.0,0.0,33,0.00,,,0.00,Wunderground v.1.15,2013-04-07 03:58:00,
2013-04-06 21:00:00,54.9,25.6,29.92,West,272,0.0,0.0,32,0.00,,,0.00,Wunderground v.1.15,2013-04-07 04:00:00,
2013-04-06 21:01:00,54.9,25.6,29.92,West,261,0.0,0.0,32,0.00,,,0.00,Wunderground v.1.15,2013-04-07 04:01:00,
2013-04-06 21:02:00,55.0,25.6,29.92,WSW,252,0.0,0.0,32,0.00,,,0.00,Wunderground v.1.15,2013-04-07 04:02:00,
2013-04-06 21:05:00,54.9,26.3,29.92,West,269,0.0,0.0,33,0.00,,,0.00,Wunderground v.1.15,2013-04-07 04:05:00,
2013-04-06 21:11:00,54.9,25.6,29.92,West,266,0.0,0.0,32,0.00,,,0.00,Wunderground v.1.15,2013-04-07 04:11:00,
2013-04-06 21:16:00,54.7,24.6,29.92,West,264,0.0,0.0,31,0.00,,,0.00,Wunderground v.1.15,2013-04-07 04:16:00,
2013-04-06 21:21:00,54.6,25.3,29.92,WNW,283,0.0,0.0,32,0.00,,,0.00,Wunderground v.1.15,2013-04-07 04:21:00,
2013-04-06 21:27:00,54.2,25.7,29.92,West,268,0.0,0.0,33,0.00,,,0.00,Wunderground v.1.15,2013-04-07 04:27:00,
2013-04-06 21:33:00,53.9,26.1,29.92,West,259,0.0,0.0,34,0.00,,,0.00,Wunderground v.1.15,2013-04-07 04:33:00,
2013-04-06 21:39:00,53.6,25.9,29.93,WSW,250,0.0,0.0,34,0.00,,,0.00,Wunderground v.1.15,2013-04-07 04:39:00,
2013-04-06 21:44:00,54.0,25.5,29.93,WSW,257,0.0,0.0,33,0.00,,,0.00,Wunderground v.1.15,2013-04-07 04:44:00,
2013-04-06 21:50:00,53.7,26.0,29.93,WSW,257,0.0,0.0,34,0.00,,,0.00,Wunderground v.1.15,2013-04-07 04:50:00,
2013-04-06 21:57:00,53.3,26.3,29.93,WSW,250,0.0,0.0,35,0.00,,,0.00,Wunderground v.1.15,2013-04-07 04:57:00,
2013-04-06 22:03:00,53.2,26.2,29.93,West,265,0.0,0.0,35,0.00,,,0.00,Wunderground v.1.15,2013-04-07 05:03:00,
2013-04-06 22:09:00,52.9,26.0,29.94,SW,219,0.0,0.0,35,0.00,,,0.00,Wunderground v.1.15,2013-04-07 05:09:00,
2013-04-06 22:14:00,52.9,26.6,29.94,WSW,255,0.0,0.0,36,0.00,,,0.00,Wunderground v.1.15,2013-04-07 05:14:00,
2013-04-06 22:20:00,53.0,27.4,29.93,SSW,205,0.0,0.0,37,0.00,,,0.00,Wunderground v.1.15,2013-04-07 05:20:00,
2013-04-06 22:25:00,52.7,26.5,29.93,SSE,163,0.0,0.0,36,0.00,,,0.00,Wunderground v.1.15,2013-04-07 05:25:00,
2013-04-06 22:32:00,52.7,27.8,29.92,WSW,238,0.0,0.0,38,0.00,,,0.00,Wunderground v.1.15,2013-04-07 05:32:00,
2013-04-06 22:38:00,52.6,28.3,29.92,SSW,211,0.0,0.0,39,0.00,,,0.00,Wunderground v.1.15,2013-04-07 05:38:00,
2013-04-06 22:45:00,52.5,28.8,29.93,SSW,202,0.0,0.0,40,0.00,,,0.00,Wunderground v.1.15,2013-04-07 05:45:00,
2013-04-06 22:50:00,52.2,29.2,29.93,SSW,202,0.0,0.0,41,0.00,,,0.00,Wunderground v.1.15,2013-04-07 05:50:00,
2013-04-06 22:56:00,51.9,29.5,29.93,SSW,212,0.0,0.0,42,0.00,,,0.00,Wunderground v.1.15,2013-04-07 05:56:00,
2013-04-06 23:01:00,51.9,28.9,29.93,SW,230,0.0,0.0,41,0.00,,,0.00,Wunderground v.1.15,2013-04-07 06:01:00,
2013-04-06 23:06:00,52.0,29.0,29.92,SSW,207,0.0,0.0,41,0.00,,,0.00,Wunderground v.1.15,2013-04-07 06:06:00,
2013-04-06 23:12:00,52.2,29.2,29.92,SW,227,0.0,0.0,41,0.00,,,0.00,Wunderground v.1.15,2013-04-07 06:12:00,
2013-04-06 23:18:00,52.3,29.3,29.91,SW,214,0.0,0.0,41,0.00,,,0.00,Wunderground v.1.15,2013-04-07 06:18:00,
2013-04-06 23:23:00,52.1,29.7,29.90,SW,227,0.0,0.0,42,0.00,,,0.00,Wunderground v.1.15,2013-04-07 06:23:00,
2013-04-06 23:29:00,52.4,30.0,29.91,SW,227,0.0,0.0,42,0.00,,,0.00,Wunderground v.1.15,2013-04-07 06:29:00,
2013-04-06 23:35:00,52.5,29.5,29.92,SW,229,0.0,0.0,41,0.00,,,0.00,Wunderground v.1.15,2013-04-07 06:35:00,
2013-04-06 23:42:00,52.4,30.0,29.92,SW,223,0.0,0.0,42,0.00,,,0.00,Wunderground v.1.15,2013-04-07 06:42:00,
2013-04-06 23:47:00,52.0,29.6,29.92,West,266,0.0,0.0,42,0.00,,,0.00,Wunderground v.1.15,2013-04-07 06:47:00,
2013-04-06 23:53:00,51.9,29.5,29.92,SW,229,0.0,0.0,42,0.00,,,0.00,Wunderground v.1.15,2013-04-07 06:53:00,
2013-04-06 23:59:00,51.8,29.4,29.92,WSW,243,0.0,0.0,42,0.00,,,0.00,Wunderground v.1.15,2013-04-07 06:59:00,